This demonstration page uses our WeatherBlox Daily Observations layout. Learn more.

Left ArrowRight Arrow

Hourly Observations for August 25, 2021

Temp ( °F °C ) Dew Point ( °F °C ) Humidity (%) Winds ( mph kmh ) Pressure ( in mb ) Visibility ( mi km ) Precip ( " mm )
12:15 am 00:15 Clear 73 23 71 21.7 92 92 Calm 30.05 1017 10 16 0.00 0.00
12:35 am 00:35 Clear 73 23 71 21.8 93 93 WSW 3 6 30.05 1017 10 16 0.00 0.00
12:55 am 00:55 Clear 75 24 72 22.1 89 89 W 5 7 30.05 1018 10 16 0.00 0.00
1:15 am 01:15 Clear 76 24.2 72 22.2 89 89 WSW 5 7 30.05 1018 10 16 0.00 0.00
1:35 am 01:35 Clear 74 23.6 72 22 91 91 Calm 30.05 1018 10 16 0.00 0.00
1:55 am 01:55 Clear 74 23.2 72 22 93 93 SW 3 6 30.06 1018 7 11 0.00 0.00
2:15 am 02:15 Mostly Cloudy with Thunderstorms 78 25.4 71 21.6 80 80 WNW 8 13 30.07 1018 10 16 0.00 0.00
2:35 am 02:35 Cloudy with Rain 76 24.3 69 20.4 79 79 NNW 5 7 30.07 1018 10 16 0.00 0.00
2:55 am 02:55 Mostly Cloudy with Light Rain 73 22.8 69 20.8 89 89 SSE 7 11 30.05 1018 10 16 0.00 0.00
3:15 am 03:15 Partly Cloudy 73 22.5 70 21 91 91 ESE 6 9 30.03 1017 10 16 0.00 0.00
3:35 am 03:35 Clear 73 22.6 69 20.6 89 89 E 5 7 30.01 1016 10 16 0.00 0.00
3:55 am 03:55 Clear 73 22.5 69 20.6 89 89 E 5 7 30.00 1016 10 16 0.00 0.00
4:15 am 04:15 Clear 72 22.3 69 20.6 90 90 N 3 6 30.03 1017 10 16 0.00 0.00
4:35 am 04:35 Clear 71 21.8 69 20.5 92 92 Calm 30.04 1017 10 16 0.00 0.00
4:55 am 04:55 Clear 71 21.5 69 20.5 94 94 Calm 30.04 1017 10 16 0.00 0.00
5:15 am 05:15 Mostly Cloudy 70 21.1 69 20.3 95 95 Calm 30.04 1017 10 16 0.00 0.00
5:35 am 05:35 Cloudy 70 21.2 69 20.5 96 96 Calm 30.04 1017 10 16 0.00 0.00
5:55 am 05:55 Mostly Cloudy 71 21.4 69 20.5 95 95 Calm 30.06 1018 10 16 0.00 0.00
6:15 am 06:15 Mostly Cloudy with Light Rain 71 21.4 69 20.5 95 95 Calm 30.06 1018 10 16 0.00 0.00
6:35 am 06:35 Cloudy 70 21.2 69 20.7 97 97 Calm 30.06 1018 10 16 0.00 0.00
6:55 am 06:55 Cloudy 71 21.4 70 20.9 97 97 ESE 5 7 30.07 1018 10 16 0.00 0.00
7:15 am 07:15 Cloudy 70 21.3 69 20.8 97 97 S 3 6 30.07 1018 10 16 0.00 0.00
7:35 am 07:35 Mostly Cloudy 71 21.5 70 21 97 97 Calm 30.08 1019 10 16 0.00 0.00
7:55 am 07:55 Mostly Cloudy with Light Rain 71 21.5 70 21.1 98 98 Calm 30.08 1019 7 11 0.01 0.25
8:15 am 08:15 Cloudy 71 21.9 71 21.5 98 98 Calm 30.09 1019 7 11 0.00 0.00
8:35 am 08:35 Cloudy with Rain 72 22.2 71 21.5 96 96 S 5 7 30.08 1019 7 11 0.00 0.00
8:55 am 08:55 Partly Cloudy 73 22.7 71 21.5 93 93 Calm 30.09 1019 10 16 0.00 0.00
9:15 am 09:15 Partly Cloudy 73 23 71 21.9 94 94 NNE 6 9 30.11 1020 10 16 0.00 0.00
9:35 am 09:35 Mostly Cloudy 73 23 71 21.4 91 91 NE 3 6 30.12 1020 10 16 0.00 0.00
9:55 am 09:55 Cloudy 73 22.5 70 21 91 91 E 9 15 30.12 1020 2 3 0.17 4.32
10:15 am 10:15 Cloudy with Thunderstorms 71 21.8 69 20.5 92 92 N 9 15 30.14 1021 10 16 0.00 0.00
10:35 am 10:35 Cloudy 72 22.2 68 19.9 87 87 ESE 6 9 30.12 1020 5 8 0.03 0.76
10:55 am 10:55 Cloudy with Thunderstorms 71 21.6 69 20.3 92 92 SSE 5 7 30.13 1020 5 8 0.13 3.30
11:15 am 11:15 Mostly Cloudy with Thunderstorms 71 21.7 69 20.7 94 94 E 3 6 30.13 1020 10 16 0.00 0.00
11:35 am 11:35 Cloudy with Thunderstorms 72 22 70 21 94 94 ESE 3 6 30.14 1021 10 16 0.00 0.00
11:55 am 11:55 Cloudy with Nearby Thunderstorms 72 22.1 69 20.6 91 91 SSE 6 9 30.14 1021 10 16 0.00 0.00
12:15 pm 12:15 Cloudy with Nearby Thunderstorms 71 21.8 69 20.8 94 94 S 7 11 30.15 1021 10 16 0.00 0.00
12:35 pm 12:35 Cloudy with Nearby Thunderstorms 72 22 69 20.5 91 91 S 9 15 30.15 1021 10 16 0.00 0.00
12:55 pm 12:55 Mostly Cloudy 72 22 69 20.5 91 91 S 8 13 30.14 1021 10 16 0.00 0.00
1:15 pm 13:15 Partly Cloudy 72 22.1 69 20.6 91 91 SSW 7 11 30.13 1020 10 16 0.00 0.00
1:35 pm 13:35 Sunny 73 22.7 69 20.5 87 87 SW 6 9 30.12 1020 10 16 0.00 0.00
1:55 pm 13:55 Sunny 74 23.1 69 20.5 85 85 SW 5 7 30.11 1020 10 16 0.00 0.00
2:15 pm 14:15 Sunny 75 23.7 69 20.7 83 83 SW 6 9 30.10 1019 10 16 0.00 0.00
2:35 pm 14:35 Sunny with Nearby Thunderstorms 75 24 68 20.2 79 79 SW 5 7 30.10 1019 10 16 0.00 0.00
2:55 pm 14:55 Sunny 76 24.3 69 20.4 79 79 SSW 6 9 30.10 1019 10 16 0.00 0.00
3:15 pm 15:15 Sunny 77 24.8 69 20.8 79 79 SSW 6 9 30.09 1019 10 16 0.00 0.00
3:35 pm 15:35 Sunny 77 25 70 20.9 78 78 S 5 7 30.08 1019 10 16 0.00 0.00
3:55 pm 15:55 Sunny 78 25.4 71 21.4 79 79 S 5 7 30.09 1019 10 16 0.00 0.00
4:15 pm 16:15 Sunny 78 25.7 71 21.5 78 78 S 6 9 30.08 1019 10 16 0.00 0.00
4:35 pm 16:35 Sunny 79 26.2 72 22.1 78 78 S 5 7 30.09 1019 10 16 0.00 0.00
4:55 pm 16:55 Sunny 80 26.5 71 21.7 75 75 SSW 6 9 30.09 1019 10 16 0.00 0.00
5:15 pm 17:15 Sunny 80 26.6 71 21.5 74 74 SW 6 9 30.08 1019 10 16 0.00 0.00
5:35 pm 17:35 Sunny 81 27.1 72 22.1 74 74 SSW 3 6 30.07 1018 10 16 0.00 0.00
5:55 pm 17:55 Sunny 82 28 72 22.4 72 72 SSW 5 7 30.06 1018 10 16 0.00 0.00
6:15 pm 18:15 Sunny 83 28.1 73 22.5 72 72 SW 5 7 30.06 1018 10 16 0.00 0.00
6:35 pm 18:35 Sunny 83 28.2 73 22.6 72 72 SW 6 9 30.06 1018 10 16 0.00 0.00
6:55 pm 18:55 Sunny 82 27.9 73 23 75 75 SSW 5 7 30.06 1018 10 16 0.00 0.00
7:15 pm 19:15 Sunny 81 27.1 73 22.9 78 78 S 5 7 30.05 1018 10 16 0.00 0.00
7:35 pm 19:35 Sunny 79 26 73 23 84 84 SSE 3 6 30.06 1018 10 16 0.00 0.00
7:55 pm 19:55 Sunny 77 25.1 73 23 88 88 S 5 7 30.05 1018 10 16 0.00 0.00
8:15 pm 20:15 Sunny 76 24.7 73 22.7 89 89 S 5 7 30.05 1018 10 16 0.00 0.00
8:35 pm 20:35 Clear 75 24.1 72 22.2 89 89 S 3 6 30.05 1018 10 16 0.00 0.00
8:55 pm 20:55 Clear 74 23.6 71 21.9 90 90 Calm 30.06 1018 10 16 0.00 0.00
9:15 pm 21:15 Clear 73 22.5 71 21.7 95 95 Calm 30.08 1019 10 16 0.00 0.00
9:35 pm 21:35 Clear 72 22.3 71 21.5 95 95 Calm 30.09 1019 10 16 0.00 0.00
9:55 pm 21:55 Clear 71 21.6 70 21.2 98 98 Calm 30.09 1019 10 16 0.00 0.00
10:15 pm 22:15 Clear 71 21.8 70 21.2 96 96 Calm 30.09 1019 10 16 0.00 0.00
10:35 pm 22:35 Clear 71 21.5 70 21 97 97 Calm 30.10 1019 10 16 0.00 0.00
10:55 pm 22:55 Clear 70 21.3 69 20.8 97 97 Calm 30.11 1020 10 16 0.00 0.00
11:15 pm 23:15 Clear 70 21 69 20.7 98 98 Calm 30.12 1020 7 11 0.00 0.00
11:35 pm 23:35 Clear 70 21.1 69 20.8 98 98 Calm 30.12 1020 7 11 0.00 0.00
11:55 pm 23:55 Clear 70 20.9 69 20.6 98 98 Calm 30.12 1020 7 11 0.00 0.00

Powered by AerisWeather